Location: St Paul
(44.9440°N, 93.0930°W)
Time: 17:22:10
(UTC-05:00)

Amateur Radio Satellites - All Passes

Search period start: 23 October 2017 16:52
Search period end: 24 October 2017 16:52
Location: St Paul, 44.9440°N, 93.0930°W

Satellite Date Start Highest point End Downlink Frequencies (MHz)
Time Altitude Azimuth
DOVE 4 23 Oct 16:55:46 16:59:41 37° 69° (ENE) 17:03:49 437.250
CUTE-I 23 Oct 16:56:15 16:58:41 13° 55° (NE) 17:01:08 437.470
BEESAT 23 Oct 16:57:35 17:02:23 75° 286° (WNW) 17:07:07 436.000
ISS 23 Oct 17:01:15 17:02:43 13° 228° (SW) 17:04:12 437.550
PCSat 23 Oct 17:01:32 17:06:59 74° 58° (ENE) 17:12:23 145.827
XW-2B 23 Oct 17:12:14 17:13:46 12° 62° (ENE) 17:15:17 145.730 - 145.750
MOZHAYETS 4 23 Oct 17:18:37 17:22:52 38° 291° (WNW) 17:27:04
XW-2C 23 Oct 17:34:08 17:37:02 21° 67° (ENE) 17:39:56 145.795 - 145.815
CUBESAT XI-V 23 Oct 17:39:04 17:43:42 83° 102° (ESE) 17:48:19 437.345
ITAMSAT 1 23 Oct 17:40:55 17:42:58 12° 272° (W) 17:45:02 435.822/435.867
HO-68 23 Oct 17:45:45 17:51:04 23° 54° (NE) 17:56:24 435.675
AO-7 23 Oct 17:50:04 17:54:49 16° 272° (W) 17:59:35 .
KAITUO 1B 23 Oct 18:06:51 18:10:15 35° 71° (ENE) 18:13:40 145.475/437.950
CUTE 1.7 + AOD 2 23 Oct 18:09:55 18:12:06 14° 62° (ENE) 18:14:18 437.475
CUBEBUG 2 23 Oct 18:13:24 18:14:49 11° 58° (ENE) 18:16:14 437.445
NUDT-PHONESAT 23 Oct 18:14:41 18:18:12 41° 72° (ENE) 18:21:42 437.300
XW-2F 23 Oct 18:14:44 18:18:26 57° 74° (ENE) 18:22:08 145.980 - 146.000
KKS-1 23 Oct 18:18:47 18:23:14 60° 102° (ESE) 18:27:39 437.445
ITUPSAT 1 23 Oct 18:24:02 18:26:29 14° 302° (WNW) 18:28:57 437.325
LilacSat-2 23 Oct 18:27:47 18:31:36 85° 258° (WSW) 18:35:25 437.200
XW-2D 23 Oct 18:30:03 18:33:50 83° 254° (WSW) 18:37:39 145.860 - 145.880
CUTE-I 23 Oct 18:32:34 18:37:53 81° 74° (ENE) 18:43:15 437.470
DOVE 4 23 Oct 18:34:19 18:37:34 21° 268° (W) 18:40:56 437.250
BEESAT 23 Oct 18:38:21 18:39:17 11° 305° (NW) 18:40:14 436.000
STARS 23 Oct 18:41:07 18:45:21 42° 99° (E) 18:49:33 437.465
UWE-3 23 Oct 18:42:56 18:45:00 13° 59° (ENE) 18:47:04 435.000/436.395/437.385
XW-2B 23 Oct 18:43:43 18:47:27 59° 259° (W) 18:51:13 145.730 - 145.750
PCSat 23 Oct 18:46:17 18:49:44 17° 255° (WSW) 18:53:09 145.827
XW-2A 23 Oct 18:53:05 18:54:01 11° 63° (ENE) 18:54:57 145.665 - 145.685
YUBILEINY 23 Oct 19:03:22 19:09:46 21° 59° (ENE) 19:16:08 435.215
XW-2C 23 Oct 19:07:41 19:11:04 30° 264° (W) 19:14:26 145.795 - 145.815
CUBESAT XI-V 23 Oct 19:18:25 19:20:24 13° 301° (WNW) 19:22:23 437.345
AO-73 23 Oct 19:23:05 19:25:44 15° 62° (ENE) 19:28:23 145.935
HO-68 23 Oct 19:30:48 19:37:59 83° 253° (WSW) 19:45:14 435.675
BEESAT 2 23 Oct 19:39:38 19:41:59 15° 35° (NE) 19:44:20 435.950
KAITUO 1B 23 Oct 19:41:52 19:44:21 17° 267° (W) 19:46:51 145.475/437.950
SEEDS 23 Oct 19:42:58 19:47:08 80° 75° (ENE) 19:51:19 437.485
CUTE 1.7 + AOD 2 23 Oct 19:43:15 19:47:26 63° 259° (W) 19:51:38 437.475
CUBEBUG 2 23 Oct 19:45:53 19:50:36 81° 76° (ENE) 19:55:23 437.445
ZACube-1 23 Oct 19:46:02 19:49:54 28° 67° (ENE) 19:53:46 437.345
BEESAT 3 23 Oct 19:46:40 19:50:23 36° 47° (NE) 19:54:02 437.485
NUDT-PHONESAT 23 Oct 19:50:10 19:52:15 14° 269° (W) 19:54:20 437.300
XW-2F 23 Oct 19:51:48 19:52:53 11° 270° (W) 19:54:00 145.980 - 146.000
AO-85 23 Oct 19:52:17 19:55:07 16° 36° (NE) 19:58:04 145.980
AAUSAT CUBESAT 2 23 Oct 19:55:34 19:59:30 48° 72° (ENE) 20:03:28 437.432
KKS-1 23 Oct 19:56:32 19:59:18 16° 299° (WNW) 20:02:06 437.445
STRAND 1 23 Oct 19:59:19 20:03:46 28° 95° (E) 20:08:10 437.568
O/OREOS (USA 219) 23 Oct 20:13:50 20:18:05 40° 107° (ESE) 20:22:23 437.305
CUTE-I 23 Oct 20:15:51 20:18:35 14° 272° (W) 20:21:18 437.470
Oscar 11 23 Oct 20:16:04 20:19:55 32° 69° (ENE) 20:23:47 .
UWE-3 23 Oct 20:16:05 20:20:45 85° 256° (WSW) 20:25:28 435.000/436.395/437.385
STARS 23 Oct 20:18:02 20:21:25 21° 296° (WNW) 20:24:46 437.465
XW-2A 23 Oct 20:22:56 20:26:16 52° 259° (W) 20:29:37 145.665 - 145.685
FO-29 23 Oct 20:46:25 20:51:46 22° 90° (E) 20:57:25 435.910
DELFI C3 23 Oct 20:49:47 20:52:12 16° 64° (ENE) 20:54:38 145.870
Max Valier Satellite 23 Oct 20:56:36 20:58:23 13° 63° (ENE) 21:00:08 145.860
AO-73 23 Oct 20:56:54 21:01:27 66° 259° (WSW) 21:05:59 145.935
YUBILEINY 23 Oct 20:59:03 21:07:55 88° 86° (E) 21:16:46 435.215
BEESAT 2 23 Oct 21:16:16 21:20:20 88° 56° (NE) 21:24:20 435.950
ZACube-1 23 Oct 21:21:54 21:26:03 33° 264° (W) 21:30:12 437.345
HO-68 23 Oct 21:22:44 21:26:46 16° 273° (W) 21:30:49 435.675
BEESAT 3 23 Oct 21:24:33 21:27:45 24° 246° (WSW) 21:30:55 437.485
CUBEBUG 2 23 Oct 21:25:58 21:27:48 12° 273° (W) 21:29:38 437.445
AO-85 23 Oct 21:31:36 21:36:09 82° 56° (ENE) 21:41:03 145.980
AAUSAT CUBESAT 2 23 Oct 21:32:46 21:35:13 15° 269° (W) 21:37:42 437.432
STRAND 1 23 Oct 21:38:15 21:43:02 39° 292° (WNW) 21:47:47 437.568
Oscar 11 23 Oct 21:52:30 21:56:05 25° 266° (W) 21:59:41 .
O/OREOS (USA 219) 23 Oct 21:53:49 21:57:37 25° 306° (NW) 22:01:28 437.305
EO-88 23 Oct 22:09:20 22:12:55 64° 75° (ENE) 22:16:33 145.990 - 145.960
RS-15 23 Oct 22:18:48 22:21:53 11° 91° (E) 22:24:58 29.354- 29.394
DELFI C3 23 Oct 22:22:51 22:26:35 45° 261° (W) 22:30:22 145.870
Max Valier Satellite 23 Oct 22:28:07 22:31:46 52° 260° (W) 22:35:26 145.860
FO-29 23 Oct 22:30:18 22:37:20 80° 286° (WNW) 22:45:02 435.910
LO-87 23 Oct 22:46:58 22:49:52 23° 68° (ENE) 22:52:49 145.935 - 145.965
ESTCUBE 1 23 Oct 22:53:10 22:56:47 25° 65° (ENE) 23:00:24 437.505/2401.250
PRISM 23 Oct 22:54:26 22:57:43 22° 94° (E) 23:00:59 437.425
YUBILEINY 23 Oct 22:57:34 23:03:30 21° 283° (WNW) 23:09:27 435.215
UNISAT 6 23 Oct 23:00:44 23:05:19 65° 101° (E) 23:09:45 437.425
AO-85 23 Oct 23:13:42 23:16:03 14° 250° (WSW) 23:18:29 145.980
TIGRISAT 23 Oct 23:14:24 23:19:01 82° 103° (ESE) 23:23:30 435.000
AIST 2D 23 Oct 23:37:15 23:39:26 16° 92° (E) 23:41:38 435.315
VELOX 1 24 Oct 00:01:54 00:05:20 23° 65° (ENE) 00:08:47 145.980
FO-29 24 Oct 00:16:58 00:21:29 19° 304° (NW) 00:26:17 435.910
RS-15 24 Oct 00:19:36 00:31:21 55° 113° (ESE) 00:43:07 29.354- 29.394
LO-87 24 Oct 00:20:12 00:23:12 24° 265° (W) 00:26:13 145.935 - 145.965
SPROUT 24 Oct 00:21:36 00:25:43 48° 72° (ENE) 00:29:52 437.525
ESTCUBE 1 24 Oct 00:29:16 00:33:24 36° 263° (W) 00:37:34 437.505/2401.250
PRISM 24 Oct 00:29:18 00:33:03 34° 291° (WNW) 00:36:47 437.425
UNISAT 6 24 Oct 00:38:46 00:41:28 16° 299° (WNW) 00:44:08 437.425
EO-79 24 Oct 00:44:31 00:48:28 36° 97° (E) 00:52:22 145.935-145.965
POLYITAN 1 24 Oct 00:50:21 00:54:24 41° 98° (E) 00:58:24 437.675
TIGRISAT 24 Oct 00:53:00 00:55:00 13° 301° (WNW) 00:56:59 435.000
DX 1 24 Oct 00:55:31 00:58:48 22° 64° (ENE) 01:02:06 434.975-435.025
AIST 2D 24 Oct 01:09:35 01:12:43 32° 289° (WNW) 01:15:51 435.315
NANOSAT C BR1 24 Oct 01:09:51 01:14:04 61° 101° (E) 01:18:14 145.865
QB50P2 24 Oct 01:10:49 01:15:07 78° 104° (ESE) 01:19:20 145.880/145.840
UKube-1 24 Oct 01:11:11 01:14:20 20° 64° (ENE) 01:17:30 .
BUGSAT 1 24 Oct 01:11:16 01:13:40 15° 90° (E) 01:16:02 437.445
DUCHIFAT 1 24 Oct 01:18:15 01:22:29 66° 101° (E) 01:26:40 145.980
50 SAT 24 Oct 01:35:57 01:39:10 61° 74° (ENE) 01:42:24 437.505
VELOX 1 24 Oct 01:37:28 01:41:33 38° 262° (W) 01:45:41 145.980
Oscar 19 24 Oct 01:48:34 01:52:21 21° 92° (E) 01:56:09 437.125/150
NO-84 24 Oct 01:52:02 01:55:28 24° 129° (SE) 01:58:56 435.350 FM
SPROUT 24 Oct 01:59:06 02:01:52 17° 269° (W) 02:04:40 437.525
ITUPSAT 1 24 Oct 02:17:31 02:20:24 16° 59° (ENE) 02:23:17 437.325
EO-79 24 Oct 02:20:41 02:24:01 23° 295° (WNW) 02:27:20 145.935-145.965
POLYITAN 1 24 Oct 02:26:47 02:29:54 20° 296° (WNW) 02:33:00 437.675
BEESAT 24 Oct 02:29:28 02:32:58 21° 62° (ENE) 02:36:28 436.000
DX 1 24 Oct 02:30:40 02:34:44 40° 261° (W) 02:38:51 434.975-435.025
RS-15 24 Oct 02:31:54 02:44:00 57° 317° (NW) 02:56:00 29.354- 29.394
BUGSAT 1 24 Oct 02:45:13 02:49:21 53° 287° (WNW) 02:53:24 437.445
MOZHAYETS 4 24 Oct 02:45:22 02:49:20 29° 67° (ENE) 02:53:19
UKube-1 24 Oct 02:45:59 02:50:04 42° 261° (W) 02:54:12 .
NANOSAT C BR1 24 Oct 02:46:56 02:49:16 15° 299° (WNW) 02:51:37 145.865
QB50P2 24 Oct 02:48:39 02:50:16 12° 300° (WNW) 02:51:51 145.880/145.840
Gurwin Techsat 1B 24 Oct 02:51:34 02:56:49 54° 100° (E) 03:02:00 435.225
DUCHIFAT 1 24 Oct 02:55:30 02:57:37 14° 299° (WNW) 02:59:43 145.980
CUBESAT XI-V 24 Oct 03:09:44 03:11:46 13° 59° (ENE) 03:13:48 437.345
M-CUBED/EXP-1 PRIME 24 Oct 03:10:14 03:13:52 65° 107° (ESE) 03:17:46 437.505
Oscar 19 24 Oct 03:27:01 03:32:00 53° 290° (WNW) 03:36:57 437.125/150
NO-84 24 Oct 03:28:20 03:32:36 65° 325° (NW) 03:36:51 435.350 FM
AO-7 24 Oct 03:52:17 03:59:30 32° 95° (E) 04:06:40 .
ITUPSAT 1 24 Oct 03:52:51 03:57:39 71° 257° (WSW) 04:02:29 437.325
BEESAT 24 Oct 04:05:42 04:10:22 52° 260° (W) 04:15:04 436.000
ITAMSAT 1 24 Oct 04:08:56 04:13:21 27° 94° (E) 04:17:43 435.822/435.867
MOZHAYETS 4 24 Oct 04:22:16 04:26:25 32° 264° (W) 04:30:34
Gurwin Techsat 1B 24 Oct 04:32:16 04:36:23 23° 298° (WNW) 04:40:30 435.225
O/OREOS (USA 219) 24 Oct 04:43:30 04:46:15 15° 48° (NE) 04:48:59 437.305
CUBESAT XI-V 24 Oct 04:43:52 04:48:29 82° 257° (WSW) 04:53:06 437.345
M-CUBED/EXP-1 PRIME 24 Oct 04:46:31 04:47:55 12° 302° (WNW) 04:49:21 437.505
RS-15 24 Oct 04:49:28 04:59:56 30° 349° (N) 05:10:09 29.354- 29.394
DOVE 4 24 Oct 04:54:05 04:55:30 11° 87° (E) 04:56:56 437.250
NO-84 24 Oct 05:07:08 05:10:39 24° 346° (NNW) 05:14:04 435.350 FM
KKS-1 24 Oct 05:18:17 05:22:41 70° 74° (ENE) 05:27:09 437.445
STARS 24 Oct 05:39:10 05:43:23 48° 71° (ENE) 05:47:39 437.465
AO-7 24 Oct 05:44:33 05:52:44 64° 295° (WNW) 06:00:54 .
ITAMSAT 1 24 Oct 05:48:01 05:52:57 43° 292° (WNW) 05:57:52 435.822/435.867
XW-2B 24 Oct 06:15:53 06:17:22 12° 90° (E) 06:18:51 145.730 - 145.750
O/OREOS (USA 219) 24 Oct 06:21:38 06:26:15 77° 248° (WSW) 06:30:49 437.305
SO-50 24 Oct 06:26:22 06:30:44 55° 121° (ESE) 06:35:09 436.795
DOVE 4 24 Oct 06:28:43 06:33:49 84° 105° (ESE) 06:39:05 437.250
XW-2C 24 Oct 06:38:08 06:41:07 22° 94° (E) 06:44:05 145.795 - 145.815
NO-84 24 Oct 06:45:56 06:49:09 21° 7° (N) 06:52:13 435.350 FM
CUTE-I 24 Oct 06:48:01 06:52:36 28° 94° (E) 06:57:09 437.470
KKS-1 24 Oct 06:57:52 06:59:44 12° 271° (W) 07:01:37 437.445
HO-68 24 Oct 06:58:01 07:02:30 17° 88° (E) 07:06:57 435.675
RS-15 24 Oct 07:06:09 07:17:04 36° 24° (NNE) 07:27:29 29.354- 29.394
KAITUO 1B 24 Oct 07:09:27 07:12:55 37° 98° (E) 07:16:21 145.475/437.950
NUDT-PHONESAT 24 Oct 07:16:20 07:19:51 43° 99° (E) 07:23:20 437.300
STRAND 1 24 Oct 07:16:48 07:21:43 49° 70° (ENE) 07:26:42 437.568
STARS 24 Oct 07:16:59 07:19:58 18° 268° (W) 07:23:00 437.465
XW-2F 24 Oct 07:18:35 07:22:18 64° 101° (E) 07:25:59 145.980 - 146.000
CUTE 1.7 + AOD 2 24 Oct 07:26:46 07:29:48 19° 92° (E) 07:32:49 437.475
SEEDS 24 Oct 07:26:47 07:28:11 11° 89° (E) 07:29:35 437.485
LilacSat-2 24 Oct 07:33:05 07:36:50 73° 284° (WNW) 07:40:35 437.200
XW-2D 24 Oct 07:34:31 07:38:15 73° 285° (WNW) 07:41:58 145.860 - 145.880
CUBEBUG 2 24 Oct 07:36:16 07:39:00 15° 89° (E) 07:41:40 437.445
AO-7 24 Oct 07:39:02 07:43:56 17° 317° (NW) 07:48:51 .
PCSat 24 Oct 07:44:59 07:50:07 45° 114° (ESE) 07:55:17 145.827
XW-2B 24 Oct 07:48:12 07:51:51 51° 286° (WNW) 07:55:29 145.730 - 145.750
UWE-3 24 Oct 08:05:00 08:07:57 17° 90° (E) 08:10:49 435.000/436.395/437.385
SO-50 24 Oct 08:07:52 08:11:30 24° 320° (NW) 08:15:11 436.795
DOVE 4 24 Oct 08:08:03 08:10:52 15° 300° (WNW) 08:13:44 437.250
YUBILEINY 24 Oct 08:08:56 08:14:54 21° 77° (ENE) 08:20:52 435.215
XW-2C 24 Oct 08:12:05 08:15:18 27° 291° (WNW) 08:18:28 145.795 - 145.815
NO-84 24 Oct 08:23:28 08:27:22 44° 28° (NNE) 08:30:59 435.350 FM
CUTE-I 24 Oct 08:27:43 08:32:46 43° 292° (WNW) 08:37:49 437.470
TIGRISAT 24 Oct 08:41:08 08:42:53 12° 58° (ENE) 08:44:37 435.000
AO-73 24 Oct 08:43:45 08:46:59 20° 92° (E) 08:50:07 145.935
HO-68 24 Oct 08:43:55 08:51:11 88° 107° (ESE) 08:58:24 435.675
KAITUO 1B 24 Oct 08:44:13 08:46:37 17° 295° (WNW) 08:49:00 145.475/437.950
FO-29 24 Oct 08:45:24 08:50:34 54° 70° (ENE) 08:56:17 435.910
NUDT-PHONESAT 24 Oct 08:51:18 08:53:21 14° 296° (WNW) 08:55:24 437.300
XW-2F 24 Oct 08:54:51 08:55:53 11° 298° (WNW) 08:56:56 145.980 - 146.000
nSIGHT-1 24 Oct 08:56:42 08:59:33 31° 140° (SE) 09:02:26 .
STRAND 1 24 Oct 08:57:10 09:01:09 23° 267° (W) 09:05:12 437.568
SEEDS 24 Oct 09:00:09 09:04:18 67° 285° (WNW) 09:08:27 437.485
CUTE 1.7 + AOD 2 24 Oct 09:01:51 09:05:48 40° 289° (WNW) 09:09:43 437.475
ZACube-1 24 Oct 09:07:56 09:12:03 41° 97° (E) 09:16:03 437.345
AAUSAT CUBESAT 2 24 Oct 09:10:34 09:14:42 71° 102° (ESE) 09:18:49 437.432
CUBEBUG 2 24 Oct 09:11:29 09:16:01 58° 287° (WNW) 09:20:23 437.445
XW-2A 24 Oct 09:15:01 09:18:20 66° 285° (WNW) 09:21:37 145.665 - 145.685
RS-15 24 Oct 09:19:34 09:31:40 81° 53° (NE) 09:43:03 29.354- 29.394
PCSat 24 Oct 09:28:48 09:33:40 33° 313° (NW) 09:38:33 145.827
Oscar 11 24 Oct 09:36:42 09:40:54 50° 99° (E) 09:45:05 .
UWE-3 24 Oct 09:40:22 09:44:43 49° 288° (WNW) 09:48:53 435.000/436.395/437.385
ISS 24 Oct 09:40:25 09:43:39 68° 147° (SSE) 09:46:54 437.550
PRISM 24 Oct 09:45:37 09:48:40 21° 65° (ENE) 09:51:45 437.425
Max Valier Satellite 24 Oct 09:57:39 09:59:05 12° 90° (E) 10:00:31 145.860
DELFI C3 24 Oct 09:58:07 10:00:57 19° 93° (E) 10:03:47 145.870
UNISAT 6 24 Oct 10:00:37 10:05:16 70° 74° (ENE) 10:09:59 437.425
NO-84 24 Oct 10:01:10 10:04:39 32° 228° (SW) 10:07:54 435.350 FM
YUBILEINY 24 Oct 10:01:48 10:10:30 86° 277° (W) 10:19:19 435.215
TIGRISAT 24 Oct 10:14:07 10:18:48 87° 74° (ENE) 10:23:33 435.000
AO-73 24 Oct 10:19:20 10:23:22 39° 290° (WNW) 10:27:18 145.935
FO-29 24 Oct 10:32:09 10:36:12 22° 271° (W) 10:40:31 435.910
nSIGHT-1 24 Oct 10:32:40 10:35:45 44° 338° (NNW) 10:38:51 .
HO-68 24 Oct 10:32:53 10:38:02 22° 307° (NW) 10:43:10 435.675
ZACube-1 24 Oct 10:44:49 10:48:02 21° 296° (WNW) 10:51:13 437.345
AAUSAT CUBESAT 2 24 Oct 10:47:54 10:49:35 12° 299° (WNW) 10:51:16 437.432
EO-88 24 Oct 11:09:20 11:12:56 64° 100° (E) 11:16:32 145.990 - 145.960
Oscar 11 24 Oct 11:13:50 11:16:39 17° 297° (WNW) 11:19:28 .
BEESAT 3 24 Oct 11:14:52 11:18:25 31° 116° (ESE) 11:22:01 437.485
ISS 24 Oct 11:17:22 11:20:19 31° 346° (NNW) 11:23:17 437.550
PRISM 24 Oct 11:19:59 11:23:43 36° 262° (W) 11:27:30 437.425
Max Valier Satellite 24 Oct 11:29:38 11:33:13 49° 287° (WNW) 11:36:44 145.860
DELFI C3 24 Oct 11:32:09 11:35:50 37° 289° (WNW) 11:39:29 145.870
RS-15 24 Oct 11:33:10 11:42:48 31° 257° (WSW) 11:52:04 29.354- 29.394
EO-79 24 Oct 11:38:24 11:42:17 35° 69° (ENE) 11:46:11 145.935-145.965
UNISAT 6 24 Oct 11:40:06 11:42:28 14° 272° (W) 11:44:51 437.425
POLYITAN 1 24 Oct 11:44:18 11:48:19 40° 70° (ENE) 11:52:20 437.675
AIST 2D 24 Oct 11:44:45 11:48:14 73° 258° (WSW) 11:51:44 435.315
LO-87 24 Oct 11:44:46 11:47:37 21° 94° (E) 11:50:26 145.935 - 145.965
AO-85 24 Oct 11:50:21 11:52:15 13° 110° (ESE) 11:54:10 145.980
TIGRISAT 24 Oct 11:54:59 11:56:07 11° 273° (W) 11:57:15 435.000
YUBILEINY 24 Oct 12:02:38 12:08:44 21° 301° (WNW) 12:14:55 435.215
BUGSAT 1 24 Oct 12:02:59 12:05:19 15° 61° (ENE) 12:07:41 437.445
NANOSAT C BR1 24 Oct 12:03:12 12:07:22 56° 72° (ENE) 12:11:34 145.865
QB50P2 24 Oct 12:04:39 12:08:55 73° 74° (ENE) 12:13:12 145.880/145.840
nSIGHT-1 24 Oct 12:09:53 12:12:33 23° 358° (N) 12:15:13 .
DUCHIFAT 1 24 Oct 12:11:17 12:15:27 61° 74° (ENE) 12:19:40 145.980
ESTCUBE 1 24 Oct 12:19:16 12:23:29 38° 98° (E) 12:27:40 437.505/2401.250
Gurwin Techsat 1B 24 Oct 12:37:26 12:40:37 16° 58° (ENE) 12:43:48 435.225
EO-88 24 Oct 12:45:19 12:46:04 10° 298° (WNW) 12:46:48 145.990 - 145.960
BEESAT 2 24 Oct 12:45:52 12:49:53 85° 124° (ESE) 12:53:58 435.950
BEESAT 3 24 Oct 12:52:23 12:55:57 30° 315° (NW) 12:59:33 437.485
ISS 24 Oct 12:54:38 12:57:25 25° 6° (N) 13:00:12 437.550
AO-7 24 Oct 13:06:12 13:10:08 14° 40° (NE) 13:14:03 .
Oscar 19 24 Oct 13:06:55 13:11:38 37° 67° (ENE) 13:16:20 437.125/150
EO-79 24 Oct 13:14:41 13:18:06 23° 266° (W) 13:21:32 145.935-145.965
SO-50 24 Oct 13:16:00 13:19:03 17° 34° (NE) 13:22:07 436.795
LO-87 24 Oct 13:17:55 13:21:00 26° 291° (WNW) 13:24:04 145.935 - 145.965
POLYITAN 1 24 Oct 13:21:02 13:24:14 20° 267° (W) 13:27:27 437.675
VELOX 1 24 Oct 13:25:07 13:29:09 33° 97° (E) 13:33:11 145.980
AO-85 24 Oct 13:28:15 13:32:05 59° 308° (NW) 13:36:05 145.980
BUGSAT 1 24 Oct 13:36:01 13:40:10 61° 259° (W) 13:44:24 437.445
SPROUT 24 Oct 13:40:41 13:44:59 72° 101° (E) 13:49:16 437.525
NANOSAT C BR1 24 Oct 13:41:06 13:43:25 14° 270° (W) 13:45:45 145.865
QB50P2 24 Oct 13:43:56 13:45:11 11° 272° (W) 13:46:27 145.880/145.840
nSIGHT-1 24 Oct 13:46:25 13:49:25 35° 18° (NNE) 13:52:24 .
DUCHIFAT 1 24 Oct 13:49:26 13:51:31 13° 270° (W) 13:53:36 145.980
ESTCUBE 1 24 Oct 13:56:31 14:00:04 23° 295° (WNW) 14:03:36 437.505/2401.250
M-CUBED/EXP-1 PRIME 24 Oct 13:58:18 14:01:35 65° 253° (WSW) 14:04:50 437.505
Gurwin Techsat 1B 24 Oct 14:14:34 14:19:53 81° 256° (WSW) 14:25:14 435.225
DX 1 24 Oct 14:16:42 14:20:31 28° 96° (E) 14:24:19 434.975-435.025
50 SAT 24 Oct 14:24:51 14:28:00 39° 99° (E) 14:31:06 437.505
BEESAT 2 24 Oct 14:25:41 14:28:11 16° 324° (NW) 14:30:42 435.950
UKube-1 24 Oct 14:31:01 14:34:39 26° 95° (E) 14:38:15 .
ISS 24 Oct 14:31:06 14:34:20 59° 26° (NNE) 14:37:34 437.550
Oscar 19 24 Oct 14:46:29 14:50:58 30° 264° (W) 14:55:30 437.125/150
PCSat 24 Oct 14:48:33 14:51:24 14° 31° (NNE) 14:54:14 145.827
AO-7 24 Oct 14:53:06 15:01:02 53° 62° (ENE) 15:08:59 .
SO-50 24 Oct 14:55:33 15:00:12 85° 57° (ENE) 15:04:52 436.795
VELOX 1 24 Oct 15:01:45 15:05:29 27° 294° (WNW) 15:09:11 145.980
AO-85 24 Oct 15:12:05 15:13:24 11° 331° (NNW) 15:14:45 145.980
SPROUT 24 Oct 15:18:20 15:20:19 13° 300° (WNW) 15:22:16 437.525
nSIGHT-1 24 Oct 15:22:40 15:25:45 46° 217° (SW) 15:28:50 .
ITAMSAT 1 24 Oct 15:28:31 15:33:30 50° 69° (ENE) 15:38:33 435.822/435.867
ITUPSAT 1 24 Oct 15:51:49 15:55:46 25° 94° (E) 15:59:41 437.325
DX 1 24 Oct 15:52:51 15:56:40 30° 293° (WNW) 16:00:27 434.975-435.025
50 SAT 24 Oct 15:58:22 15:59:56 13° 296° (WNW) 16:01:29 437.505
Gurwin Techsat 1B 24 Oct 15:59:29 16:00:39 11° 274° (W) 16:01:48 435.225
DOVE 4 24 Oct 16:01:57 16:03:33 12° 58° (ENE) 16:05:11 437.250
BEESAT 24 Oct 16:03:49 16:08:09 33° 97° (E) 16:12:26 436.000
UKube-1 24 Oct 16:06:49 16:10:41 32° 292° (WNW) 16:14:31 .
ISS 24 Oct 16:07:59 16:10:36 22° 223° (SW) 16:13:12 437.550
MOZHAYETS 4 24 Oct 16:14:37 16:19:04 50° 99° (E) 16:23:29
PCSat 24 Oct 16:30:40 16:36:02 56° 54° (NE) 16:41:20 145.827
SO-50 24 Oct 16:38:00 16:40:00 13° 252° (WSW) 16:42:00 436.795
CUBESAT XI-V 24 Oct 16:38:59 16:42:30 21° 93° (E) 16:45:58 437.345
